Tracking 27420 objects as of 28-May-2023
HD Live streaming from Space Station
objects crossing your sky now

FR 1

Track FR 1 now!
10-day predictions
FR 1 is classified as:


NORAD ID: 1814
Int'l Code: 1965-101A
Perigee: 671.4 km
Apogee: 679.5 km
Inclination: 75.9 °
Period: 98.1 minutes
Semi major axis: 7046 km
RCS: 0.5793 m2 (medium)
Launch date: December 6, 1965
Source: France (FR)
Launch site: AIR FORCE WESTERN TEST RANGE (AFWTR)
Your satellite tracking list
Your tracking list is empty




NASA's NSSDC Master Catalog

Two Line Element Set (TLE):
1 01814U 65101A   23147.91706941  .00000911  00000-0  16273-3 0  9994
2 01814  75.8658 111.6650 0005777 318.2334  41.8404 14.67739973892090
Source of the keplerian elements: AFSPC